User: anonymous   Login
Location: Earls Croome
(52.0667°N, 2.2000°W)
Time: 22:43:43
(UTC+00:00)
Language:

CZ-4B R/B - Orbit

View from above orbital plane
View from above orbital plane
View from above satellite
View from above satellite

Ground track
Ground track

The orbit data is extracted from the following two-line orbital elements,

1 37181U 10051C   20027.06080700 -.00000294  00000-0 -16751-4 0  9990
2 37181  97.7476  10.5272 0110030  71.5231 331.0178 14.98332979507867
Epoch (UTC): 27 January 2020 01:27:33
Eccentricity: 0.0110030
inclination: 97.7476°
perigee height: 495 km
apogee height: 648 km
right ascension of ascending node: 10.5272°
argument of perigee: 71.5231°
revolutions per day: 14.98332979
mean anomaly at epoch: 331.0178°
orbit number at epoch: 50786

The dashed part of the orbit path shows where the satellite is in the earth's shadow,  

DLR